Regional Weather Roundup
Issued by NWS

Home | Current Version | Previous Version | Graphics & Text | Print | Product List | Glossary On
Versions: 1 2 3 4 5 6 7 8 9 10 11 12 13 14 15 16 17 18 19 20 21 22 23 24 25 26 27 28 29 30 31 32 33 34 35 36 37 38 39 40 41 42 43 44 45 46 47 48 49 50
000
ASUS44 KMEG 181510
RWRTN
TENNESSEE HOURLY STATE WEATHER ROUNDUP
NATIONAL WEATHER SERVICE MEMPHIS TN
1000 AM CDT SAT APR 18 2015

TNZ002-004-019-021-049-052-054-088>092-181600-
WEST TENNESSEE

CITY           SKY/WX    TMP DP  RH WIND       PRES   REMARKS
MEMPHIS INTL   CLOUDY    67  61  81 E7        29.97R
NWS MEMPHIS      N/A     66 N/A N/A MISG        N/A
JACKSON        CLOUDY    66  63  90 E3        29.99R
DYERSBURG      CLOUDY    64  54  68 NE5       30.00R
UNION CITY     MOSUNNY   63  32  31 E3        29.99R
PARIS          SUNNY     64  61  88 E6        30.01R
LEXINGTON      SUNNY     64  63  94 NE6       29.99R
SAVANNAH       SUNNY     68  32  26 CALM      29.99R
$$

TNZ008-025-027-028-033-062-065-066-181600-
NORTH MIDDLE TENNESSEE

CITY           SKY/WX    TMP DP  RH WIND       PRES   REMARKS
NASHVILLE      CLOUDY    69  61  75 E3        30.00S
CLARKSVILLE    CLOUDY    68  61  78 E9        30.00S
SMYRNA         CLOUDY    68  63  84 CALM      30.01R
COOKEVILLE     SUNNY     72  61  68 NE6       29.98F
CROSSVILLE     PTSUNNY   69  56  62 NE8       30.03S
$$

TNZ061-075-076-078-094-096-097-181600-
SOUTH MIDDLE TENNESSEE

CITY           SKY/WX    TMP DP  RH WIND       PRES   REMARKS
FAYETTEVILLE     N/A     66  61  82 CALM      29.99S
TULLAHOMA      SUNNY     68  59  73 CALM      30.01R
WINCHESTER     SUNNY     72  61  68 CALM      29.99S
MCMINNVILLE    SUNNY     66  64  94 E7        30.00S
COLUMBIA       MOSUNNY   64  32  29 CALM      29.99S
SHELBYVILLE    SUNNY     66  64  94 VRB3      30.00S
$$

TNZ017-018-042-046-047-181600-
NORTHEAST TENNESSEE

CITY           SKY/WX    TMP DP  RH WIND       PRES   REMARKS
TRI CITIES     PTSUNNY   68  60  75 S3        30.05S
ELIZABETHTON   SUNNY     72  57  60 CALM      30.05R
$$

TNZ012-013-036-069-073-074-181600-
CENTRAL EAST TENNESSEE

CITY           SKY/WX    TMP DP  RH WIND       PRES   REMARKS
KNOXVILLE      PTSUNNY   67  61  81 N10       29.99F
OAK RIDGE      MOSUNNY   69  60  73 NE7       30.02F
GATLINBURG     MOSUNNY   68  61  77 NE6       30.00F
MORRISTOWN     SUNNY     68  63  83 E8        30.04F
$$

TNZ083-085-099-181600-
SOUTHEAST TENNESSEE

CITY           SKY/WX    TMP DP  RH WIND       PRES   REMARKS
CHATTANOOGA    PTSUNNY   67  61  81 CALM      30.00S
$$

SKY/WX REPORTED AS FAIR MEANS FEW OR NO CLOUDS BELOW
12 THOUSAND FEET.



USA.gov is the U.S. government's official web portal to all federal, state and local government web resources and services.